Time,TemperatureF,DewpointF,PressureIn,WindDirection,WindDirectionDegrees,WindSpeedMPH,WindSpeedGustMPH,Humidity,HourlyPrecipIn,Conditions,Clouds,dailyrainin,SolarRadiationWatts/m^2,SoftwareType,DateUTC
2017-02-19 00:08:00,-999.9,-99.9,29.71,South,184,2.0,-999.0,-999,-99.99,,,0.00,0,weatherlink.com 1.10,2017-02-19 05:08:00,
2017-02-19 00:24:00,-999.9,-99.9,29.72,SW,217,1.0,-999.0,-999,-99.99,,,0.00,0,weatherlink.com 1.10,2017-02-19 05:24:00,
2017-02-19 00:39:00,-999.9,-99.9,29.72,SSW,210,2.0,-999.0,-999,-99.99,,,0.00,0,weatherlink.com 1.10,2017-02-19 05:39:00,
2017-02-19 00:54:00,-999.9,-99.9,29.72,SSE,162,1.0,-999.0,-999,-99.99,,,0.00,0,weatherlink.com 1.10,2017-02-19 05:54:00,
2017-02-19 01:09:00,-999.9,-99.9,29.72,SW,220,2.0,-999.0,-999,-99.99,,,0.00,0,weatherlink.com 1.10,2017-02-19 06:09:00,
2017-02-19 01:25:00,-999.9,-99.9,29.73,SSW,201,2.0,-999.0,-999,-99.99,,,0.00,0,weatherlink.com 1.10,2017-02-19 06:25:00,
2017-02-19 01:39:00,-999.9,-99.9,29.73,SSW,201,0.0,-999.0,-999,-99.99,,,0.00,0,weatherlink.com 1.10,2017-02-19 06:39:00,
2017-02-19 01:54:00,-999.9,-99.9,29.73,SSW,211,0.0,-999.0,-999,-99.99,,,0.00,0,weatherlink.com 1.10,2017-02-19 06:54:00,
2017-02-19 02:09:00,-999.9,-99.9,29.73,SW,233,3.0,-999.0,-999,-99.99,,,0.00,0,weatherlink.com 1.10,2017-02-19 07:09:00,
2017-02-19 02:24:00,-999.9,-99.9,29.73,WSW,252,2.0,-999.0,-999,-99.99,,,0.00,0,weatherlink.com 1.10,2017-02-19 07:24:00,
2017-02-19 02:39:00,-999.9,-99.9,29.74,WSW,254,4.0,-999.0,-999,-99.99,,,0.00,0,weatherlink.com 1.10,2017-02-19 07:39:00,
2017-02-19 02:54:00,-999.9,-99.9,29.73,West,275,1.0,-999.0,-999,-99.99,,,0.00,0,weatherlink.com 1.10,2017-02-19 07:54:00,
2017-02-19 03:25:00,-999.9,-99.9,29.74,WSW,248,2.0,-999.0,-999,-99.99,,,0.00,0,weatherlink.com 1.10,2017-02-19 08:25:00,
2017-02-19 03:39:00,-999.9,-99.9,29.73,WNW,295,2.0,-999.0,-999,-99.99,,,0.00,0,weatherlink.com 1.10,2017-02-19 08:39:00,
2017-02-19 03:55:00,-999.9,-99.9,29.72,WNW,284,8.0,-999.0,-999,-99.99,,,0.00,0,weatherlink.com 1.10,2017-02-19 08:55:00,
2017-02-19 04:10:00,-999.9,-99.9,29.72,West,267,2.0,-999.0,-999,-99.99,,,0.00,0,weatherlink.com 1.10,2017-02-19 09:10:00,
2017-02-19 04:25:00,-999.9,-99.9,29.74,WSW,237,2.0,-999.0,-999,-99.99,,,0.00,0,weatherlink.com 1.10,2017-02-19 09:25:00,
2017-02-19 04:40:00,-999.9,-99.9,29.75,SSW,192,0.0,-999.0,-999,-99.99,,,0.00,0,weatherlink.com 1.10,2017-02-19 09:40:00,
2017-02-19 04:55:00,-999.9,-99.9,29.75,West,263,1.0,-999.0,-999,-99.99,,,0.00,0,weatherlink.com 1.10,2017-02-19 09:55:00,
2017-02-19 05:10:00,-999.9,-99.9,29.75,WSW,254,1.0,-999.0,-999,-99.99,,,0.00,0,weatherlink.com 1.10,2017-02-19 10:10:00,
2017-02-19 05:25:00,-999.9,-99.9,29.75,WSW,255,0.0,-999.0,-999,-99.99,,,0.00,0,weatherlink.com 1.10,2017-02-19 10:25:00,
2017-02-19 05:40:00,-999.9,-99.9,29.76,West,279,1.0,-999.0,-999,-99.99,,,0.00,0,weatherlink.com 1.10,2017-02-19 10:40:00,
2017-02-19 05:55:00,-999.9,-99.9,29.76,West,279,0.0,-999.0,-999,-99.99,,,0.00,0,weatherlink.com 1.10,2017-02-19 10:55:00,
2017-02-19 06:10:00,-999.9,-99.9,29.77,West,271,0.0,-999.0,-999,-99.99,,,0.00,0,weatherlink.com 1.10,2017-02-19 11:10:00,
2017-02-19 06:25:00,-999.9,-99.9,29.77,WNW,284,1.0,-999.0,-999,-99.99,,,0.00,0,weatherlink.com 1.10,2017-02-19 11:25:00,
2017-02-19 06:40:00,-999.9,-99.9,29.78,WSW,258,0.0,-999.0,-999,-99.99,,,0.00,0,weatherlink.com 1.10,2017-02-19 11:40:00,
2017-02-19 06:55:00,-999.9,-99.9,29.79,WSW,256,3.0,-999.0,-999,-99.99,,,0.00,0,weatherlink.com 1.10,2017-02-19 11:55:00,
2017-02-19 07:10:00,-999.9,-99.9,29.79,West,266,2.0,-999.0,-999,-99.99,,,0.00,12,weatherlink.com 1.10,2017-02-19 12:10:00,
2017-02-19 07:26:00,-999.9,-99.9,29.79,WNW,296,3.0,-999.0,-999,-99.99,,,0.00,18,weatherlink.com 1.10,2017-02-19 12:26:00,
2017-02-19 07:41:00,-999.9,-99.9,29.80,WNW,298,3.0,-999.0,-999,-99.99,,,0.00,16,weatherlink.com 1.10,2017-02-19 12:41:00,
2017-02-19 07:56:00,-999.9,-99.9,29.81,WNW,284,2.0,-999.0,-999,-99.99,,,0.00,26,weatherlink.com 1.10,2017-02-19 12:56:00,
2017-02-19 08:11:00,-999.9,-99.9,29.82,West,279,3.0,-999.0,-999,-99.99,,,0.00,49,weatherlink.com 1.10,2017-02-19 13:11:00,
2017-02-19 08:26:00,-999.9,-99.9,29.82,SW,225,3.0,-999.0,-999,-99.99,,,0.00,53,weatherlink.com 1.10,2017-02-19 13:26:00,
2017-02-19 08:41:00,-999.9,-99.9,29.83,WSW,247,3.0,-999.0,-999,-99.99,,,0.00,47,weatherlink.com 1.10,2017-02-19 13:41:00,
2017-02-19 08:56:00,-999.9,-99.9,29.84,West,277,3.0,-999.0,-999,-99.99,,,0.00,70,weatherlink.com 1.10,2017-02-19 13:56:00,
2017-02-19 09:11:00,-999.9,-99.9,29.84,WSW,246,3.0,-999.0,-999,-99.99,,,0.00,102,weatherlink.com 1.10,2017-02-19 14:11:00,
2017-02-19 09:26:00,-999.9,-99.9,29.84,WNW,287,3.0,-999.0,-999,-99.99,,,0.00,114,weatherlink.com 1.10,2017-02-19 14:26:00,
2017-02-19 09:41:00,-999.9,-99.9,29.84,SW,232,5.0,-999.0,-999,-99.99,,,0.00,482,weatherlink.com 1.10,2017-02-19 14:41:00,
2017-02-19 09:56:00,-999.9,-99.9,29.84,NW,307,3.0,-999.0,-999,-99.99,,,0.00,323,weatherlink.com 1.10,2017-02-19 14:56:00,
2017-02-19 10:11:00,-999.9,-99.9,29.84,NW,307,4.0,-999.0,-999,-99.99,,,0.00,541,weatherlink.com 1.10,2017-02-19 15:11:00,
2017-02-19 10:26:00,-999.9,-99.9,29.84,WSW,249,3.0,-999.0,-999,-99.99,,,0.00,554,weatherlink.com 1.10,2017-02-19 15:26:00,
2017-02-19 10:42:00,-999.9,-99.9,29.83,WNW,282,4.0,-999.0,-999,-99.99,,,0.00,503,weatherlink.com 1.10,2017-02-19 15:42:00,
2017-02-19 10:57:00,-999.9,-99.9,29.83,NNW,346,2.0,-999.0,-999,-99.99,,,0.00,657,weatherlink.com 1.10,2017-02-19 15:57:00,
2017-02-19 11:12:00,-999.9,-99.9,29.84,West,269,4.0,-999.0,-999,-99.99,,,0.00,679,weatherlink.com 1.10,2017-02-19 16:12:00,
2017-02-19 11:27:00,-999.9,-99.9,29.84,NNW,333,6.0,-999.0,-999,-99.99,,,0.00,557,weatherlink.com 1.10,2017-02-19 16:27:00,
2017-02-19 11:42:00,-999.9,-99.9,29.83,NW,313,6.0,-999.0,-999,-99.99,,,0.00,589,weatherlink.com 1.10,2017-02-19 16:42:00,
2017-02-19 11:57:00,-999.9,-99.9,29.83,West,270,3.0,-999.0,-999,-99.99,,,0.00,480,weatherlink.com 1.10,2017-02-19 16:57:00,
2017-02-19 12:12:00,-999.9,-99.9,29.82,NW,309,3.0,-999.0,-999,-99.99,,,0.00,494,weatherlink.com 1.10,2017-02-19 17:12:00,
2017-02-19 12:27:00,-999.9,-99.9,29.82,West,265,3.0,-999.0,-999,-99.99,,,0.00,413,weatherlink.com 1.10,2017-02-19 17:27:00,
2017-02-19 12:42:00,-999.9,-99.9,29.82,North,360,2.0,-999.0,-999,-99.99,,,0.00,232,weatherlink.com 1.10,2017-02-19 17:42:00,
2017-02-19 12:57:00,-999.9,-99.9,29.82,NW,304,4.0,-999.0,-999,-99.99,,,0.00,204,weatherlink.com 1.10,2017-02-19 17:57:00,
2017-02-19 13:12:00,-999.9,-99.9,29.81,NW,321,3.0,-999.0,-999,-99.99,,,0.00,230,weatherlink.com 1.10,2017-02-19 18:12:00,
2017-02-19 13:27:00,-999.9,-99.9,29.81,NW,306,6.0,-999.0,-999,-99.99,,,0.00,631,weatherlink.com 1.10,2017-02-19 18:27:00,
2017-02-19 13:42:00,-999.9,-99.9,29.81,WNW,292,2.0,-999.0,-999,-99.99,,,0.00,591,weatherlink.com 1.10,2017-02-19 18:42:00,
2017-02-19 13:57:00,-999.9,-99.9,29.81,WNW,296,5.0,-999.0,-999,-99.99,,,0.00,561,weatherlink.com 1.10,2017-02-19 18:57:00,
2017-02-19 14:12:00,-999.9,-99.9,29.81,NW,304,4.0,-999.0,-999,-99.99,,,0.00,541,weatherlink.com 1.10,2017-02-19 19:12:00,
2017-02-19 14:28:00,-999.9,-99.9,29.81,West,275,2.0,-999.0,-999,-99.99,,,0.00,506,weatherlink.com 1.10,2017-02-19 19:28:00,